Погода в Кунерме

Россия / Иркутская область     55°45′39″N   108°26′50″E
темп.,
°C
ветер,
м/с
пор.,
м/с
влажн.,
%
обл.,
%
осадки,
мм/ч
давл.,
гПа
погр.,
м
8 марта, пн
пн823:00−5юз2497100 0.8 1012198
02:00−7зюз3697100 3.1 1013337
05:00−8юз3797100 1.6 1014444
08:00−11з4998100 4.5 1017777
11:00−11з5893100 1.4 10201022
14:00−11з4793100 2.9 10221009
17:00−11з3793100 1.2 1024868
20:00−14юз1296100 1.9 102835
9 марта, вт
вт923:00−15ююв2294100 0.4 102921
02:00−17вюв338280 0.4 102835
05:00−15вюв447898 0.0 102582
08:00−13вюв557699 0.0 1022117
11:00−9вюв4580100 0.0 1018174
14:00−4ююз2480100 0.1 1015518
17:00−5юз2496100 1.6 1016344
20:00−6юз2897100 2.9 1018450
10 марта, ср
ср1023:00−8зюз41196100 2.9 10201127
02:00−12зсз3797100 3.8 1024620
05:00−16юз1198100 0.5 102820
08:00−17ю1198100 0.8 103121
11:00−11ю238293 0.1 1029600
14:00−8ююз247063 0.1 1025740
17:00−7ююв238180 0.0 1023425
20:00−10юв338090 0.0 102449
11 марта, чт
чт1123:00−9ю2284100 0.0 102424
02:00−9ююз2292100 0.0 102423
05:00−9ююв2292100 0.1 102524
08:00−8юв2390100 0.2 102538
11:00−2ююв238439 0.0 1021387
14:00−1юв369120 0.0 1017575
17:00−3вюв46831 0.0 1015193
20:00−5вюв447646 0.0 101764
12 марта, пт
пт1223:00−3ю2268100 0.0 101854
02:00−5ююв227698 0.1 101723
05:00−5вюв2274100 0.0 101722
08:00−5в127597 0.0 101721
11:00−2сз1288100 0.0 1015344
14:00−4зсз3497100 1.1 1014451
17:00−5з2297100 2.4 1016278
20:00−7зюз2299100 3.8 101867